Location: Baix
(44.7118°N, 4.7648°E)
Time: 03:32:59
(UTC+00:00)

Meteor 2-9 Rocket - Pass Details

Date: 07 August 2020
Orbit: 792 x 895 km, 81.3° (Epoch: 27 September)

Event Time Altitude Azimuth Distance (km) Brightness Sun altitude
Exits shadow 00:41:30 60° 284° (WNW) 961 4.4 -27.7°
Drops below altitude 10° 00:47:06 10° 4° (N) 2,501 7.6 -27.4°
Sets 00:49:37 0° 8° (N) 3,458 8.6 -27.3°
